Simultaneous Nadir Overpasses (SNOs) Predictions

Prediction of SNOs between AQUA and NOAA-19 Satellite Orbit:

Table of predicted SNOs for the next 14.0 days since TLE Epoch: 1/19/2018
Index Date (AQUA) Time (AQUA) Lat,Lon (AQUA) SZA (AQUA ) Date (NOAA-19) Time (NOAA-19) Lat,Lon (NOAA-19) SZA (NOAA-19 ) Distance(km) Time Diff (sec)
1 01/20/2018 11:26:36 -80.87, 148.81 76.83 01/20/2018 11:26:48 -80.88, 148.66 76.81 2.85 12
2 01/22/2018 17:00:23 80.88,-114.81 102.72 01/22/2018 17:00:24 80.88,-114.92 102.73 2.16 1
3 01/24/2018 22:34:08 -80.88, -18.17 77.81 01/24/2018 22:34:10 -80.88, -18.28 77.80 1.96 2
4 01/27/2018 04:07:54 80.87, 78.45 101.64 01/27/2018 04:07:45 80.88, 78.32 101.66 2.29 9
5 01/29/2018 09:41:39 -80.87, 175.08 78.95 01/29/2018 09:41:31 -80.88, 174.96 78.93 2.30 8
6 01/31/2018 15:15:25 80.87, -88.42 100.47 01/31/2018 15:15:06 80.87, -88.53 100.49 1.92 19
7 02/02/2018 20:49:10 -80.87, 8.21 80.18 02/02/2018 20:48:51 -80.88, 8.38 80.18 3.21 19




NCC Satellite Simultaneous Nadir Overpasses (SNOs) Prediction Service
